Weather History for Beaumont / Port Arthur, TX

Change the Weather History Date:

Wednesday, April 24, 2013

  Actual Average (KBPT) Record (KBPT)
Temperature  
Mean Temperature 61 °F 70 °F  
Max Temperature 72 °F 80 °F 90 °F (1905)
Min Temperature 50 °F 61 °F 47 °F (1995)
Degree Days  
Heating Degree Days 4 1  
Month to date heating degree days 39  
Since 1 July heating degree days 1400  
Cooling Degree Days 0 6  
Month to date cooling degree days 105  
Year to date cooling degree days 186  
Growing Degree Days 11 (Base 50)    
Moisture  
Dew Point 54 °F    
Average Humidity 76    
Maximum Humidity 100    
Minimum Humidity 45    
Precipitation  
Precipitation 0.00 in 0.12 in 2.48 in (1905)
Month to date precipitation 2.46  
Year to date precipitation 14.83  
Snow  
Snow 0.00 in 0.00 in 0.00 in ()
Month to date snowfall 0.0  
Since 1 July snowfall T  
Snow Depth -    
Sea Level Pressure  
Sea Level Pressure 30.11 in    
Wind  
Wind Speed 11 mph (North)    
Max Wind Speed 23 mph    
Max Gust Speed 30 mph    
Visibility 10 miles    
Events Rain , Thunderstorm    
T = Trace of Precipitation, MM = Missing Value Source: NWS Daily Summary

Daily Weather History Graph

Daily Weather History Graph

Search for Another Location

Airport:

Trip Planner

Search our weather history database for the weather conditions in past years. The results will help you decide how hot, cold, wet, or windy it might be!

Date:

Astronomy

Apr. 24, 2013 Rise Set
Actual Time 6:40 AM CDT 7:50 PM CDT
Civil Twilight 6:15 AM CDT 8:15 PM CDT
Nautical Twilight 5:45 AM CDT 8:44 PM CDT
Astronomical Twilight 5:14 AM CDT 9:15 PM CDT
Moon 6:56 PM CDT (4/24) 5:39 AM CDT (4/24)
Length of Visible Light 13h 59m
Length of Day
13h 09m
Waxing Gibbous, 98% of the Moon is Illuminated
Apr 24
Waxing Gibbous
Apr 25
Full
May 2
Last Quarter
May 9
New
May 17
First Quarter

Hourly Weather History & Observations

Time (CDT) Temp. Dew Point Humidity Pressure Visibility Wind Dir Wind Speed Gust Speed Precip Events Conditions
12:15 AM 72.1 °F 72.1 °F 100% 29.98 in 10.0 mi SSE 5.8 mph - N/A   Overcast
12:35 AM 72.1 °F 72.1 °F 100% 29.99 in 10.0 mi SSE 5.8 mph - N/A   Overcast
12:55 AM 72.0 °F 72.0 °F 100% 29.98 in 10.0 mi SSE 5.8 mph - N/A   Overcast
1:15 AM 72.0 °F 72.0 °F 100% 29.99 in 10.0 mi SSE 5.8 mph - N/A   Overcast
1:35 AM 72.1 °F 72.1 °F 100% 29.98 in 10.0 mi SSE 5.8 mph - N/A   Overcast
1:55 AM 72.1 °F 72.1 °F 100% 29.98 in 10.0 mi SSE 5.8 mph - N/A   Overcast
2:15 AM 72.1 °F 72.1 °F 100% 29.97 in 7.0 mi SSE 6.9 mph - N/A   Overcast
2:35 AM 72.3 °F 72.3 °F 100% 29.97 in 7.0 mi SSE 6.9 mph - N/A   Overcast
2:55 AM 72.5 °F 72.5 °F 100% 29.96 in 7.0 mi SSE 8.1 mph - N/A Thunderstorm Overcast
3:15 AM 72.0 °F 72.0 °F 100% 29.96 in 5.0 mi South 6.9 mph - N/A Rain , Thunderstorm Light Thunderstorms and Rain
3:35 AM 69.4 °F 68.7 °F 98% 29.98 in 7.0 mi NW 12.7 mph 24.2 mph N/A   Overcast
3:55 AM 59.9 °F 59.9 °F 100% 30.00 in 3.0 mi NW 19.6 mph 23.0 mph N/A Rain Heavy Rain
4:15 AM 58.1 °F 58.1 °F 100% 30.00 in 10.0 mi NW 17.3 mph 23.0 mph N/A Thunderstorm Thunderstorm
4:35 AM 57.6 °F 57.6 °F 100% 30.02 in 10.0 mi NW 16.1 mph 21.9 mph N/A Thunderstorm Thunderstorm
4:55 AM 56.7 °F 56.7 °F 100% 30.03 in 10.0 mi NW 13.8 mph 19.6 mph N/A   Overcast
5:15 AM 55.6 °F 55.6 °F 100% 30.05 in 10.0 mi NNW 15.0 mph 20.7 mph N/A Rain Light Rain
5:35 AM 54.1 °F 54.1 °F 100% 30.06 in 7.0 mi NNW 13.8 mph 19.6 mph N/A Rain Rain
5:55 AM 53.2 °F 53.2 °F 100% 30.07 in 10.0 mi NNW 15.0 mph 23.0 mph N/A Rain Light Rain
6:15 AM 51.6 °F 51.6 °F 100% 30.09 in 10.0 mi NNW 23.0 mph 29.9 mph N/A   Overcast
6:35 AM 50.4 °F 50.4 °F 100% 30.10 in 7.0 mi NNW 17.3 mph - N/A   Overcast
6:55 AM 50.0 °F 50.0 °F 100% 30.11 in 7.0 mi North 17.3 mph 25.3 mph N/A   Overcast
7:15 AM 50.0 °F 50.0 °F 100% 30.12 in 10.0 mi NNW 13.8 mph 18.4 mph N/A   Drizzle
7:35 AM 50.0 °F 50.0 °F 100% 30.13 in 10.0 mi NNW 12.7 mph - N/A   Overcast
7:55 AM 50.0 °F 50.0 °F 100% 30.14 in 10.0 mi North 16.1 mph 21.9 mph N/A   Overcast
8:15 AM 50.2 °F 50.0 °F 99% 30.15 in 10.0 mi North 15.0 mph 23.0 mph N/A   Overcast
8:35 AM 50.4 °F 48.9 °F 95% 30.14 in 10.0 mi North 18.4 mph 28.8 mph N/A   Overcast
8:55 AM 50.5 °F 49.1 °F 95% 30.15 in 10.0 mi North 13.8 mph 20.7 mph N/A   Overcast
9:15 AM 51.3 °F 48.6 °F 90% 30.15 in 10.0 mi North 15.0 mph 20.7 mph N/A   Overcast
9:35 AM 52.0 °F 48.7 °F 89% 30.16 in 10.0 mi North 19.6 mph 23.0 mph N/A   Overcast
9:55 AM 52.9 °F 49.1 °F 87% 30.18 in 10.0 mi North 15.0 mph 19.6 mph N/A   Overcast
10:15 AM 53.2 °F 47.8 °F 82% 30.18 in 10.0 mi North 16.1 mph 24.2 mph N/A   Overcast
10:35 AM 54.9 °F 48.0 °F 78% 30.17 in 10.0 mi North 20.7 mph 26.5 mph N/A   Overcast
10:55 AM 57.6 °F 48.6 °F 72% 30.18 in 10.0 mi North 16.1 mph 24.2 mph N/A   Overcast
11:15 AM 57.2 °F 47.7 °F 70% 30.18 in 10.0 mi North 18.4 mph - N/A   Overcast
11:35 AM 57.9 °F 47.8 °F 69% 30.17 in 10.0 mi NNE 21.9 mph - N/A   Mostly Cloudy
11:55 AM 59.7 °F 47.5 °F 64% 30.17 in 10.0 mi North 18.4 mph 25.3 mph N/A   Mostly Cloudy
12:15 PM 60.6 °F 47.8 °F 63% 30.18 in 10.0 mi North 13.8 mph 25.3 mph N/A   Scattered Clouds
12:35 PM 61.5 °F 48.0 °F 61% 30.16 in 10.0 mi North 15.0 mph 21.9 mph N/A   Scattered Clouds
12:55 PM 62.6 °F 47.8 °F 58% 30.16 in 10.0 mi NNE 15.0 mph 19.6 mph N/A   Clear
1:15 PM 63.7 °F 47.8 °F 56% 30.16 in 10.0 mi North 16.1 mph - N/A   Clear
1:35 PM 64.6 °F 47.8 °F 55% 30.16 in 10.0 mi North 15.0 mph - N/A   Clear
1:55 PM 66.2 °F 48.7 °F 53% 30.15 in 10.0 mi NNE 10.4 mph 20.7 mph N/A   Clear
2:15 PM 66.6 °F 49.1 °F 53% 30.15 in 10.0 mi NNE 12.7 mph 16.1 mph N/A   Scattered Clouds
2:35 PM 67.8 °F 50.2 °F 53% 30.14 in 10.0 mi North 13.8 mph 18.4 mph N/A   Scattered Clouds
2:55 PM 69.1 °F 49.1 °F 49% 30.15 in 10.0 mi NNE 10.4 mph 18.4 mph N/A   Scattered Clouds
3:15 PM 68.9 °F 49.3 °F 50% 30.13 in 10.0 mi North 10.4 mph 18.4 mph N/A   Scattered Clouds
3:35 PM 69.3 °F 49.6 °F 50% 30.11 in 10.0 mi North 17.3 mph 24.2 mph N/A   Mostly Cloudy
3:55 PM 70.3 °F 49.8 °F 48% 30.11 in 10.0 mi NNE 15.0 mph 19.6 mph N/A   Clear
4:15 PM 70.7 °F 49.1 °F 46% 30.11 in 10.0 mi NNE 11.5 mph - N/A   Clear
4:35 PM 70.7 °F 48.6 °F 45% 30.11 in 10.0 mi NNE 12.7 mph 18.4 mph N/A   Clear
4:55 PM 71.1 °F 49.1 °F 46% 30.11 in 10.0 mi NNE 10.4 mph - N/A   Clear
5:15 PM 70.7 °F 48.9 °F 46% 30.12 in 10.0 mi North 12.7 mph 17.3 mph N/A   Clear
5:35 PM 70.3 °F 47.8 °F 45% 30.12 in 10.0 mi NNE 11.5 mph - N/A   Clear
5:55 PM 69.4 °F 48.0 °F 46% 30.12 in 10.0 mi North 10.4 mph - N/A   Clear
6:15 PM 69.1 °F 48.7 °F 48% 30.13 in 10.0 mi NE 11.5 mph - N/A   Clear
6:35 PM 68.0 °F 48.9 °F 50% 30.13 in 10.0 mi NNE 10.4 mph - N/A   Clear
6:55 PM 67.1 °F 48.9 °F 52% 30.14 in 10.0 mi NNE 9.2 mph - N/A   Mostly Cloudy
7:15 PM 66.0 °F 49.1 °F 54% 30.15 in 10.0 mi NNE 8.1 mph - N/A Thunderstorm Mostly Cloudy
7:35 PM 65.1 °F 49.3 °F 56% 30.15 in 10.0 mi NNE 8.1 mph - N/A   Mostly Cloudy
7:55 PM 63.9 °F 49.6 °F 60% 30.16 in 10.0 mi North 5.8 mph - N/A   Mostly Cloudy
8:15 PM 63.5 °F 50.2 °F 62% 30.17 in 10.0 mi NNE 6.9 mph - N/A   Mostly Cloudy
8:35 PM 62.6 °F 50.9 °F 66% 30.18 in 10.0 mi NNE 5.8 mph - N/A   Overcast
8:55 PM 62.4 °F 50.9 °F 66% 30.18 in 10.0 mi NNE 6.9 mph - N/A   Mostly Cloudy
10:15 PM 60.1 °F 51.3 °F 73% 30.21 in 10.0 mi NNE 5.8 mph - N/A   Scattered Clouds
10:35 PM 59.9 °F 51.4 °F 74% 30.22 in 10.0 mi North 5.8 mph - N/A   Mostly Cloudy
10:55 PM 59.9 °F 51.3 °F 73% 30.22 in 10.0 mi North 4.6 mph - N/A   Mostly Cloudy
11:15 PM 59.9 °F 51.8 °F 75% 30.22 in 10.0 mi NNE 4.6 mph - N/A   Overcast
11:35 PM 59.9 °F 51.6 °F 74% 30.21 in 10.0 mi NNE 6.9 mph - N/A   Overcast
11:55 PM 59.9 °F 51.6 °F 74% 30.21 in 10.0 mi NE 9.2 mph - N/A   Overcast